Regional Weather Roundup
Issued by NWS

Home | Current Version | Previous Version | Graphics & Text | Print | Product List | Glossary On
Versions: 1 2 3 4 5 6 7 8 9 10 11 12 13 14 15 16 17 18 19 20 21 22 23 24 25 26 27 28 29 30 31 32 33 34 35 36 37 38 39 40 41 42 43 44 45 46 47 48 49 50
000
ASUS44 KMEG 170310
RWRTN
TENNESSEE HOURLY STATE WEATHER ROUNDUP
NATIONAL WEATHER SERVICE MEMPHIS TN
900 PM CST SAT DEC 16 2017

TNZ002-004-019-021-049-052-054-088>092-170400-
WEST TENNESSEE

CITY           SKY/WX    TMP DP  RH WIND       PRES   REMARKS
MEMPHIS INTL   CLOUDY    45  31  58 S6        30.20R
NWS MEMPHIS      N/A     46 N/A N/A MISG        N/A
JACKSON        CLOUDY    46  31  55 S5        30.21R
DYERSBURG      PTCLDY    46  30  53 S3          N/A
SOMERVILLE     CLEAR     46  30  53 S7        30.19R
COVINGTON      CLEAR     41  32  70 CALM      30.20R
UNION CITY     CLEAR     43  30  61 S9        30.17S
BOLIVAR        CLEAR     45  32  61 SE6       30.20S
PARIS          CLEAR     45  32  61 S8        30.18R
HUNTINGDON     CLEAR     45  32  61 S8        30.19R
LEXINGTON      CLEAR     45  30  57 S6        30.22R
SELMER         PTCLDY    45  30  57 S6        30.21S
SAVANNAH       CLEAR     43  32  65 MISG      30.23R
$$

TNZ008-025-027-028-033-062-065-066-170400-
NORTH MIDDLE TENNESSEE

CITY           SKY/WX    TMP DP  RH WIND       PRES   REMARKS
NASHVILLE      CLOUDY    43  30  60 S3        30.23R
PORTLAND       CLEAR     41  30  65 S9        30.20R
CLARKSVILLE    MOCLDY    43  27  53 S5        30.19S
SMYRNA         CLOUDY    38  30  73 CALM      30.25R
COOKEVILLE     CLEAR     34  28  80 CALM      30.21F
GALLATIN       CLEAR     43  30  61 S3        30.25R
CROSSVILLE     CLOUDY    34  26  72 S3        30.23R
$$

TNZ061-075-076-078-094-096-097-170400-
SOUTH MIDDLE TENNESSEE

CITY           SKY/WX    TMP DP  RH WIND       PRES   REMARKS
FAYETTEVILLE   CLEAR     41  28  60 S8        30.24R
TULLAHOMA      CLEAR     34  28  80 S6        30.23R WCI  29
WINCHESTER     CLEAR     37  27  65 SE3       30.25R
MCMINNVILLE    CLEAR     34  28  80 CALM      30.23S
COLUMBIA       CLEAR     43  28  56 S6        30.21R
SHELBYVILLE    CLEAR     36  30  80 CALM      30.24R
$$

TNZ017-018-042-046-047-170400-
NORTHEAST TENNESSEE

CITY           SKY/WX    TMP DP  RH WIND       PRES   REMARKS
TRI CITIES     CLOUDY    28  25  88 CALM      30.27R
ELIZABETHTON   CLEAR     28  25  86 CALM      30.29R
$$

TNZ012-013-036-069-073-074-170400-
CENTRAL EAST TENNESSEE

CITY           SKY/WX    TMP DP  RH WIND       PRES   REMARKS
KNOXVILLE      MOCLDY    34  29  82 CALM      30.26R
OAK RIDGE      CLOUDY    33  29  85 CALM      30.27S
DOWNTOWN KNOXV   N/A     32  30  93 CALM      30.27S
GATLINBURG     CLEAR     30  27  86 CALM      30.27S
MORRISTOWN     CLEAR     32  27  80 CALM      30.26R
JACKSBORO      CLEAR     30  27  86 CALM      30.28S
$$

TNZ083-085-099-170400-
SOUTHEAST TENNESSEE

CITY           SKY/WX    TMP DP  RH WIND       PRES   REMARKS
CHATTANOOGA    MOCLDY    35  28  75 CALM      30.27S
DAYTON         CLEAR     34  32  93 CALM      30.26S
$$

SKY/WX REPORTED AS FAIR MEANS FEW OR NO CLOUDS BELOW
12 THOUSAND FEET.





USA.gov is the U.S. government's official web portal to all federal, state and local government web resources and services.